Regional Weather Roundup
Issued by NWS

Home | Current Version | Previous Version | Text Only | Print | Product List | Glossary On
Versions: 1 2 3 4 5 6 7 8 9 10 11 12 13 14 15 16 17 18 19 20 21 22 23 24 25 26 27 28 29 30 31 32 33 34 35 36 37 38 39 40 41 42 43 44 45 46 47 48 49 50
708
ASUS42 KKEY 271910
RWRKEY

FLORIDA REGIONAL WEATHER ROUNDUP FOR THE FLORIDA KEYS
NATIONAL WEATHER SERVICE KEY WEST FLORIDA
300 PM EDT TUE JUN 27 2017

...SOUTH FLORIDA AND THE KEYS...

CITY           SKY/WX    TMP DP  RH WIND       PRES   REMARKS
FORT MYERS     LGT RAIN  78  76  93 CALM      29.99F
SW REGIONAL AP CLOUDY    78  73  84 CALM      29.99F
NAPLES         MOSUNNY   89  76  65 W12       29.98F HX 100
MIAMI          TSTM      83  75  77 SE12      30.00S HX  90
WEST KENDALL   TSTM      74  72  93 E3        30.01F FOG
HOMESTEAD      MOSUNNY   90  79  70 E9        29.97  THUNDER HX 105
MARATHON       SUNNY     88  78  72 SE6       29.98F HX 101
BOCA CHICA NAS MOSUNNY   88  76  67 S7        29.99F HX  99
KEY WEST INTL  SUNNY     86  74  67 S5        29.99F HX  94

...INTERNATIONAL WEATHER...

CITY           SKY/WX    TMP DP  RH WIND       PRES   REMARKS
NASSAU BAHAMAS PTSUNNY   91  77  62 E6        30.00F HX 105
CANCUN MEXICO  PTSUNNY   86  77  74 E12       29.96F HX  97
COZUMEL MEXICO MOSUNNY   88  75  66 SE10      29.94F HX  97

ADJACENT COASTAL WATERS...

STATION/POSITION TIME  SKY/WX   TEMP    WIND        PRES    WAVE
                                AIR SEA DIR/SP/G            HT/PER
                 (UTC)          (F)     (DEG/KT/KT) (MB)    (FT/S)
PULASKI SHOAL LI 1900            84     130/  3/  4 1015.7F
SAND KEY         1850            83     310/  2/  3 1016.1F
LONG KEY         NOT AVBL
MOLASSES REEF    1800            84 85  180/  5/  5 1016.0F
FOWEY ROCKS      1800            83 84  140/ 10/ 10 1016.5F
Buoy 42097       1830               85                N/A     1/ 3

$$




USA.gov is the U.S. government's official web portal to all federal, state and local government web resources and services.